User: anonymous   Login
Location: Newark
(44.3248°N, 23.7839°E)
Time: 00:13:13
(UTC+00:00)
Language:

NANOSAT C BR1 - Orbit

View from above orbital plane
View from above orbital plane
View from above satellite
View from above satellite

Ground track
Ground track

The orbit data is extracted from the following two-line orbital elements,

1 40024U 14033Q   24109.47543590  .00018745  00000-0  14440-2 0  9994
2 40024  98.0552  79.1882 0007812  22.7188 337.4380 15.01669193534283
Epoch (UTC): 18 April 2024 11:24:37
Eccentricity: 0.0007812
inclination: 98.0552°
perigee height: 556 km
apogee height: 567 km
right ascension of ascending node: 79.1882°
argument of perigee: 22.7188°
revolutions per day: 15.01669193
mean anomaly at epoch: 337.4380°
orbit number at epoch: 53428

The dashed part of the orbit path shows where the satellite is in the earth's shadow,  

DLR